Regional Weather Roundup
Issued by NWS

Home | Current Version | Previous Version | Text Only | Print | Product List | Glossary Off
Versions: 1 2 3 4 5 6 7 8 9 10 11 12 13 14 15 16 17 18 19 20 21 22 23 24 25 26 27

000
ASUS45 KBOU 230306
RWRCO

WEATHER ROUNDUP FOR COLORADO
NATIONAL WEATHER SERVICE DENVER/BOULDER CO
900 PM MDT TUE APR 22 2014

NOTE: "FAIR" INDICATES FEW OR NO CLOUDS BELOW 12000 FEET WITH NO
SIGNIFICANT WEATHER AND/OR OBSTRUCTIONS TO VISIBILITY.

COZ001>005-013-030-031-230400-
...NORTHWEST COLORADO...

CITY           SKY/WX    TMP DP  RH WIND       PRES   REMARKS
CRAIG          CLOUDY    54  33  45 SW8       29.70S
HAYDEN         CLOUDY    57  30  35 SE13      29.75S
MEEKER         CLOUDY    61  28  28 S9        29.71S
MOUNT WERNER   CLOUDY    46  21  36 SE29G40   29.94
STEAMBOAT SPGS CLOUDY    54  30  41 E9        29.75S
WALDEN         CLOUDY    43  30  61 SE9       29.83F
$$

COZ006>008-011-230400-
...WEST CENTRAL VALLEYS...

CITY           SKY/WX    TMP DP  RH WIND       PRES   REMARKS
GRAND JUNCTION CLOUDY    62  31  31 E5        29.62S
MONTROSE       CLOUDY    65  32  29 SE13G20   29.75S
EAGLE          CLOUDY    57  30  35 CALM      29.80R
RIFLE          CLOUDY    63  33  32 SE16      29.68F
DELTA          NOT AVBL
NUCLA          NOT AVBL
$$

COZ017>023-064>068-230400-
...SOUTHWEST COLORADO...

CITY           SKY/WX    TMP DP  RH WIND       PRES   REMARKS
DURANGO        CLOUDY    64  19  17 SW9       29.87R
CORTEZ         CLEAR     64  23  21 S14       29.82R
PAGOSA SPRINGS CLOUDY    57  27  31 CALM      29.93F
TELLURIDE      CLOUDY    54  25  32 S8        29.95S
WOLF CREEK PAS CLOUDY    36  27  69 S22G33    30.13R
$$

COZ009-010-012-014-032>034-037-058>063-230400-
...CENTRAL COLORADO...

CITY           SKY/WX    TMP DP  RH WIND       PRES   REMARKS
ASPEN          MOCLDY    50  33  52 S5        29.85S
BUENA VISTA    MOCLDY    50  33  53 SE8       29.91S
COPPER MTN     MOCLDY    37  27  65 S21G29    30.08S
BERTHOUD PASS  FAIR      32  23  69 MISG      30.11S
COTTONWOOD PAS MOCLDY    52  27  37 SW10G22   30.00S
GUNNISON       CLOUDY    50  30  46 CALM      29.93S
KREMMLING      CLOUDY    50  34  53 CALM      29.83S
LEADVILLE      MOCLDY    43  26  51 SE7       29.98F
MONARCH PASS   CLOUDY    34  28  80 SW24      30.20F WCI  21
SALIDA         MOCLDY    56  34  43 S14G20    29.97S
SUNLIGHT       CLOUDY    41  32  70 SW3       29.97F
WILKERSON PASS CLOUDY    37  28  70 S6        30.08F
$$

COZ069>075-230400-
...SAN LUIS VALLEY/SANGRE DE CRISTO MOUNTAINS...

CITY           SKY/WX    TMP DP  RH WIND       PRES   REMARKS
ALAMOSA        PTCLDY    56  29  35 SW12      29.94S
LA VETA PASS   CLOUDY    45  28  53 SW14G35   30.06S
SAGUACHE       CLOUDY    54  32  43 W14G25    29.97R
$$

COZ035-036-038>040-230400-
...NORTHERN COLORADO FRONT RANGE...

CITY           SKY/WX    TMP DP  RH WIND       PRES   REMARKS
DENVER INTL AP MOCLDY    63  37  38 S13       29.71F
DMNS CITY PARK   N/A     65  36  34 SW7G14    29.70S
AURORA         MOCLDY    63  36  36 S12       29.74S
FRONT RANGE AP NOT AVBL
ERIE MUNI ARPT CLOUDY    56  44  64 SW6       29.69S
BOULDER MUN AP CLOUDY    64  32  29 SW5       29.69F
CENTENNIAL     CLOUDY    59  35  40 S5        29.75R
BROOMFIELD     MOCLDY    61  37  41 S5        29.73R
FORT COLLINS   CLOUDY    64  36  34 S5        29.69S
LONGMONT       NOT AVBL
$$

COZ041-046-047-076>085-087-088-230400-
...PIKES PEAK/PALMER DIVIDE AND SOUTHERN FOOTHILLS...

CITY           SKY/WX    TMP DP  RH WIND       PRES   REMARKS
COLO. SPRINGS  MOCLDY    63  31  30 S14       29.81R
A. F. ACADEMY  CLOUDY    59  32  36 S6        29.81R
ELLICOTT       NOT AVBL
FALCON         MOCLDY    57  30  35 S10       29.85S
FORT CARSON    CLOUDY    62  31  30 S7        29.78R
LIMON          PTCLDY    59  40  49 S14       29.76S
MONUMENT HILL  CLOUDY    50  36  57 S8        29.83S
TRINIDAD       MOCLDY    66  37  34 S22G33    29.82F
$$

COZ042>045-048>051-090-091-230400-
...NORTHEAST COLORADO...

CITY           SKY/WX    TMP DP  RH WIND       PRES   REMARKS
GREELEY ARPT   MOCLDY    59  37  44 CALM      29.68R
AKRON          CLOUDY    65  39  38 S13       29.70S
BURLINGTON     MOCLDY    62  40  44 S13       29.77R
WRAY           MOCLDY    70  39  32 SE12      29.69R
STERLING       NOT AVBL
HOLYOKE        NOT AVBL
FORT MORGAN    NOT AVBL
$$

COZ086-089-092>099-230400-
...SOUTHEAST COLORADO...

CITY           SKY/WX    TMP DP  RH WIND       PRES   REMARKS
PUEBLO         MOCLDY    69  37  30 SE9       29.71F
LA JUNTA       MOCLDY    69  42  37 S12       29.75R
LAMAR          MOCLDY    65  44  46 S13       29.73S
SPRINGFIELD      N/A     59  47  64 S14       29.81S
$$



USA.gov is the U.S. government's official web portal to all federal, state and local government web resources and services.